| time (UTC) | temp C | wind direction | speed KPH | gust KPH | rain 1hr cm | rain 24hr cm | rain mn cm | humidity % | barometer mb |
| 20260502162047 | 27 | 360 | 27.4 | 43.5 | 0.00 | 0.00 | 0.00 | 32 | 1010.3 |
| 20260502161947 | 27 | 360 | 29.0 | 43.5 | 0.00 | 0.00 | 0.00 | 31 | 1010.3 |
| 20260502161547 | 27 | 360 | 29.0 | 40.2 | 0.00 | 0.00 | 0.00 | 31 | 1010.2 |
| 20260502161447 | 27 | 360 | 30.6 | 40.2 | 0.00 | 0.00 | 0.00 | 31 | 1010.3 |
| 20260502161047 | 27 | 360 | 29.0 | 40.2 | 0.00 | 0.00 | 0.00 | 31 | 1010.2 |
| 20260502160946 | 27 | 360 | 24.1 | 40.2 | 0.00 | 0.00 | 0.00 | 31 | 1010.1 |
| 20260502160547 | 27 | 360 | 30.6 | 40.2 | 0.00 | 0.00 | 0.00 | 31 | 1010.3 |
| 20260502160446 | 27 | 360 | 33.8 | 40.2 | 0.00 | 0.00 | 0.00 | 31 | 1010.3 |
| 20260502152047 | 26 | 360 | 19.3 | 29.0 | 0.00 | 0.00 | 0.00 | 32 | 1009.9 |
| 20260502151946 | 26 | 360 | 24.1 | 29.0 | 0.00 | 0.00 | 0.00 | 31 | 1009.8 |
| 20260502151551 | 26 | 360 | 22.5 | 29.0 | 0.00 | 0.00 | 0.00 | 31 | 1009.9 |
| 20260502151050 | 25 | 360 | 19.3 | 27.4 | 0.00 | 0.00 | 0.00 | 32 | 1010.0 |
| 20260502150946 | 25 | 360 | 19.3 | 29.0 | 0.00 | 0.00 | 0.00 | 31 | 1009.9 |
| 20260502150547 | 25 | 360 | 16.1 | 30.6 | 0.00 | 0.00 | 0.00 | 32 | 1009.8 |
| 20260502150446 | 25 | 360 | 14.5 | 30.6 | 0.00 | 0.00 | 0.00 | 32 | 1009.8 |
| 20260502130550 | 20 | 360 | 4.8 | 8.0 | 0.00 | 0.00 | 0.00 | 29 | 1008.4 |
| 20260502130446 | 20 | 360 | 6.4 | 6.4 | 0.00 | 0.00 | 0.00 | 29 | 1008.4 |
| 20260502123546 | 21 | 360 | 8.0 | 14.5 | 0.00 | 0.00 | 0.00 | 28 | 1007.9 |
| 20260502123447 | 21 | 360 | 4.8 | 14.5 | 0.00 | 0.00 | 0.00 | 28 | 1007.7 |
| 20260502123050 | 20 | 360 | 4.8 | 14.5 | 0.00 | 0.00 | 0.00 | 29 | 1007.9 |
| 20260502122946 | 20 | 360 | 6.4 | 14.5 | 0.00 | 0.00 | 0.00 | 29 | 1007.8 |
| 20260502122549 | 20 | 360 | 4.8 | 9.7 | 0.00 | 0.00 | 0.00 | 30 | 1007.8 |
| 20260502122447 | 20 | 360 | 4.8 | 12.9 | 0.00 | 0.00 | 0.00 | 30 | 1007.7 |
| 20260502122047 | 19 | 360 | 6.4 | 12.9 | 0.00 | 0.00 | 0.00 | 30 | 1007.8 |
| 20260502121946 | 19 | 360 | 6.4 | 12.9 | 0.00 | 0.00 | 0.00 | 30 | 1007.7 |
| 20260502121552 | 19 | 360 | 6.4 | 9.7 | 0.00 | 0.00 | 0.00 | 31 | 1007.7 |
| 20260502121446 | 18 | 360 | 6.4 | 12.9 | 0.00 | 0.00 | 0.00 | 31 | 1007.7 |
| 20260502121047 | 18 | 360 | 6.4 | 12.9 | 0.00 | 0.00 | 0.00 | 31 | 1007.7 |
| 20260502120947 | 18 | 360 | 8.0 | 12.9 | 0.00 | 0.00 | 0.00 | 31 | 1007.8 |
| 20260502120548 | 18 | 360 | 8.0 | 16.1 | 0.00 | 0.00 | 0.00 | 31 | 1007.7 |
| 20260502120447 | 18 | 360 | 9.7 | 16.1 | 0.00 | 0.00 | 0.00 | 31 | 1007.6 |
| 20260502115551 | 19 | 360 | 9.7 | 16.1 | 0.00 | 0.00 | 0.00 | 30 | 1007.7 |
| 20260502115046 | 19 | 360 | 11.3 | 16.1 | 0.00 | 0.00 | 0.00 | 30 | 1007.8 |
| 20260502114946 | 19 | 360 | 12.9 | 16.1 | 0.00 | 0.00 | 0.00 | 30 | 1007.7 |
| 20260502114547 | 20 | 360 | 11.3 | 14.5 | 0.00 | 0.00 | 0.00 | 30 | 1007.8 |
| 20260502114047 | 21 | 360 | 8.0 | 12.9 | 0.00 | 0.00 | 0.00 | 29 | 1007.8 |
| 20260502113946 | 21 | 360 | 8.0 | 12.9 | 0.00 | 0.00 | 0.00 | 29 | 1007.7 |
| 20260502113548 | 21 | 360 | 6.4 | 14.5 | 0.00 | 0.00 | 0.00 | 28 | 1007.7 |
| 20260502113448 | 21 | 360 | 6.4 | 14.5 | 0.00 | 0.00 | 0.00 | 28 | 1007.6 |
| 20260502113047 | 20 | 360 | 9.7 | 14.5 | 0.00 | 0.00 | 0.00 | 29 | 1007.8 |
| 20260502112947 | 20 | 360 | 8.0 | 14.5 | 0.00 | 0.00 | 0.00 | 30 | 1007.6 |
| 20260502112549 | 18 | 360 | 8.0 | 14.5 | 0.00 | 0.00 | 0.00 | 31 | 1007.7 |
| 20260502112046 | 17 | 360 | 8.0 | 14.5 | 0.00 | 0.00 | 0.00 | 33 | 1007.7 |
| 20260502111946 | 17 | 360 | 8.0 | 9.7 | 0.00 | 0.00 | 0.00 | 33 | 1007.6 |
| 20260502111600 | 17 | 360 | 4.8 | 14.5 | 0.00 | 0.00 | 0.00 | 34 | 1007.6 |
| 20260502111447 | 17 | 360 | 4.8 | 14.5 | 0.00 | 0.00 | 0.00 | 34 | 1007.5 |
| 20260502111048 | 17 | 360 | 8.0 | 14.5 | 0.00 | 0.00 | 0.00 | 35 | 1007.6 |
| 20260502110946 | 16 | 360 | 8.0 | 12.9 | 0.00 | 0.00 | 0.00 | 35 | 1007.5 |
| 20260502110547 | 16 | 360 | 6.4 | 12.9 | 0.00 | 0.00 | 0.00 | 35 | 1007.4 |
| 20260502110446 | 16 | 360 | 6.4 | 14.5 | 0.00 | 0.00 | 0.00 | 35 | 1007.4 |
| 20260502110048 | 16 | 360 | 8.0 | 14.5 | 0.00 | 0.00 | 0.00 | 35 | 1007.5 |
| 20260502105947 | 16 | 360 | 8.0 | 14.5 | 0.00 | 0.00 | 0.00 | 35 | 1007.4 |
| 20260502105548 | 16 | 360 | 9.7 | 14.5 | 0.00 | 0.00 | 0.00 | 34 | 1007.3 |
| 20260502105047 | 16 | 360 | 8.0 | 16.1 | 0.00 | 0.00 | 0.00 | 34 | 1007.3 |
| 20260502104547 | 16 | 360 | 8.0 | 16.1 | 0.00 | 0.00 | 0.00 | 34 | 1007.4 |
| 20260502104446 | 16 | 360 | 8.0 | 14.5 | 0.00 | 0.00 | 0.00 | 34 | 1007.4 |
| 20260502104048 | 17 | 360 | 11.3 | 17.7 | 0.00 | 0.00 | 0.00 | 34 | 1007.4 |
| 20260502103947 | 17 | 360 | 14.5 | 17.7 | 0.00 | 0.00 | 0.00 | 34 | 1007.3 |
| 20260502103548 | 17 | 360 | 8.0 | 17.7 | 0.00 | 0.00 | 0.00 | 33 | 1007.4 |
| 20260502103102 | 19 | 360 | 12.9 | 16.1 | 0.00 | 0.00 | 0.00 | 31 | 1007.4 |
| 20260502102547 | 20 | 360 | 9.7 | 12.9 | 0.00 | 0.00 | 0.00 | 28 | 1007.5 |
| 20260502102447 | 20 | 360 | 12.9 | 12.9 | 0.00 | 0.00 | 0.00 | 28 | 1007.3 |
| 20260502102048 | 20 | 360 | 4.8 | 6.4 | 0.00 | 0.00 | 0.00 | 29 | 1007.4 |
| 20260502101946 | 20 | 360 | 4.8 | 6.4 | 0.00 | 0.00 | 0.00 | 29 | 1007.3 |
| 20260502101555 | 20 | 360 | 3.2 | 4.8 | 0.00 | 0.00 | 0.00 | 29 | 1007.3 |
| 20260502101446 | 20 | 360 | 3.2 | 6.4 | 0.00 | 0.00 | 0.00 | 29 | 1007.3 |
| 20260502101048 | 20 | 360 | 1.6 | 8.0 | 0.00 | 0.00 | 0.00 | 28 | 1007.4 |
| 20260502100946 | 20 | 360 | 3.2 | 8.0 | 0.00 | 0.00 | 0.00 | 28 | 1007.3 |
| 20260502100546 | 20 | 360 | 3.2 | 9.7 | 0.00 | 0.00 | 0.00 | 28 | 1007.4 |
| 20260502091446 | 23 | 360 | 0.0 | 4.8 | 0.00 | 0.00 | 0.00 | 25 | 1006.8 |
| 20260502091048 | 23 | 360 | 0.0 | 4.8 | 0.00 | 0.00 | 0.00 | 25 | 1006.9 |
| 20260502090946 | 23 | 360 | 0.0 | 4.8 | 0.00 | 0.00 | 0.00 | 25 | 1006.8 |
| 20260502090549 | 23 | 360 | 1.6 | 4.8 | 0.00 | 0.00 | 0.00 | 25 | 1006.8 |
| 20260502090446 | 23 | 360 | 3.2 | 4.8 | 0.00 | 0.00 | 0.00 | 25 | 1006.9 |
| 20260502071449 | 27 | 360 | 14.5 | 17.7 | 0.00 | 0.00 | 0.00 | 16 | 1006.1 |
| 20260502071049 | 27 | 360 | 11.3 | 16.1 | 0.00 | 0.00 | 0.00 | 16 | 1006.1 |
| 20260502070550 | 27 | 360 | 4.8 | 16.1 | 0.00 | 0.00 | 0.00 | 18 | 1006.2 |
| 20260502070449 | 28 | 360 | 8.0 | 16.1 | 0.00 | 0.00 | 0.00 | 18 | 1006.0 |
| 20260502070050 | 28 | 360 | 8.0 | 16.1 | 0.00 | 0.00 | 0.00 | 16 | 1006.1 |
| 20260502065952 | 28 | 360 | 14.5 | 16.1 | 0.00 | 0.00 | 0.00 | 16 | 1006.0 |
| 20260502065550 | 28 | 360 | 9.7 | 20.9 | 0.00 | 0.00 | 0.00 | 15 | 1006.1 |
| 20260502065450 | 28 | 360 | 16.1 | 20.9 | 0.00 | 0.00 | 0.00 | 15 | 1006.1 |
| 20260502065049 | 28 | 360 | 12.9 | 20.9 | 0.00 | 0.00 | 0.00 | 15 | 1006.0 |
| 20260502064949 | 28 | 360 | 14.5 | 20.9 | 0.00 | 0.00 | 0.00 | 15 | 1005.9 |
| 20260502064550 | 28 | 360 | 12.9 | 20.9 | 0.00 | 0.00 | 0.00 | 15 | 1005.9 |
| 20260502064449 | 28 | 360 | 16.1 | 22.5 | 0.00 | 0.00 | 0.00 | 15 | 1005.9 |
| 20260502064052 | 28 | 360 | 12.9 | 22.5 | 0.00 | 0.00 | 0.00 | 15 | 1006.0 |
| 20260502063550 | 29 | 360 | 14.5 | 24.1 | 0.00 | 0.00 | 0.00 | 15 | 1006.0 |
| 20260502063449 | 29 | 360 | 17.7 | 24.1 | 0.00 | 0.00 | 0.00 | 15 | 1005.9 |
| 20260502063050 | 29 | 360 | 11.3 | 24.1 | 0.00 | 0.00 | 0.00 | 15 | 1005.9 |
| 20260502062951 | 29 | 360 | 12.9 | 24.1 | 0.00 | 0.00 | 0.00 | 15 | 1005.8 |
| 20260502062551 | 29 | 360 | 14.5 | 22.5 | 0.00 | 0.00 | 0.00 | 15 | 1005.7 |
| 20260502062449 | 29 | 360 | 17.7 | 22.5 | 0.00 | 0.00 | 0.00 | 15 | 1005.8 |
| 20260502062050 | 29 | 360 | 14.5 | 29.0 | 0.00 | 0.00 | 0.00 | 15 | 1005.7 |
| 20260502061949 | 29 | 360 | 14.5 | 29.0 | 0.00 | 0.00 | 0.00 | 15 | 1005.6 |
| 20260502061552 | 29 | 360 | 16.1 | 29.0 | 0.00 | 0.00 | 0.00 | 15 | 1005.7 |
| 20260502061049 | 30 | 360 | 14.5 | 29.0 | 0.00 | 0.00 | 0.00 | 15 | 1005.7 |
| 20260502060949 | 30 | 360 | 9.7 | 29.0 | 0.00 | 0.00 | 0.00 | 15 | 1005.6 |
| 20260502060549 | 30 | 360 | 16.1 | 25.7 | 0.00 | 0.00 | 0.00 | 15 | 1005.8 |
| 20260502060449 | 30 | 360 | 16.1 | 25.7 | 0.00 | 0.00 | 0.00 | 15 | 1005.7 |
| 20260502060049 | 30 | 360 | 12.9 | 27.4 | 0.00 | 0.00 | 0.00 | 15 | 1005.6 |
| 20260502055950 | 30 | 360 | 19.3 | 30.6 | 0.00 | 0.00 | 0.00 | 15 | 1005.6 |
| 20260502055551 | 30 | 360 | 14.5 | 30.6 | 0.00 | 0.00 | 0.00 | 15 | 1005.7 |
| 20260502055050 | 30 | 360 | 16.1 | 37.0 | 0.00 | 0.00 | 0.00 | 15 | 1005.6 |
| 20260502054949 | 30 | 360 | 20.9 | 37.0 | 0.00 | 0.00 | 0.00 | 15 | 1005.5 |
| 20260502054553 | 30 | 360 | 11.3 | 25.7 | 0.00 | 0.00 | 0.00 | 15 | 1005.6 |
| 20260502054449 | 30 | 360 | 12.9 | 25.7 | 0.00 | 0.00 | 0.00 | 15 | 1005.5 |
| 20260502054053 | 30 | 360 | 12.9 | 25.7 | 0.00 | 0.00 | 0.00 | 15 | 1005.6 |
| 20260502053549 | 30 | 360 | 12.9 | 25.7 | 0.00 | 0.00 | 0.00 | 15 | 1005.6 |
| 20260502053449 | 30 | 360 | 14.5 | 25.7 | 0.00 | 0.00 | 0.00 | 15 | 1005.5 |
| 20260502053050 | 30 | 360 | 12.9 | 30.6 | 0.00 | 0.00 | 0.00 | 15 | 1005.6 |
| 20260502052950 | 30 | 360 | 6.4 | 30.6 | 0.00 | 0.00 | 0.00 | 15 | 1005.6 |
| 20260502052551 | 29 | 360 | 14.5 | 30.6 | 0.00 | 0.00 | 0.00 | 15 | 1005.5 |
| 20260502052449 | 29 | 360 | 8.0 | 30.6 | 0.00 | 0.00 | 0.00 | 15 | 1005.5 |
| 20260502052052 | 28 | 360 | 8.0 | 25.7 | 0.00 | 0.00 | 0.00 | 16 | 1005.6 |
| 20260502051949 | 28 | 360 | 6.4 | 25.7 | 0.00 | 0.00 | 0.00 | 16 | 1005.6 |
| 20260502051549 | 28 | 360 | 12.9 | 25.7 | 0.00 | 0.00 | 0.00 | 16 | 1005.6 |
| 20260502051449 | 28 | 360 | 22.5 | 25.7 | 0.00 | 0.00 | 0.00 | 17 | 1005.5 |
| 20260502051049 | 27 | 360 | 9.7 | 16.1 | 0.00 | 0.00 | 0.00 | 18 | 1005.6 |
| 20260502050949 | 27 | 360 | 12.9 | 16.1 | 0.00 | 0.00 | 0.00 | 18 | 1005.6 |
| 20260502050549 | 26 | 360 | 0.0 | 4.8 | 0.00 | 0.00 | 0.00 | 20 | 1005.7 |
| 20260502050449 | 26 | 360 | 1.6 | 3.2 | 0.00 | 0.00 | 0.00 | 20 | 1005.5 |
| 20260502050049 | 27 | 360 | 0.0 | 4.8 | 0.00 | 0.00 | 0.00 | 21 | 1005.6 |
| 20260502045950 | 27 | 360 | 1.6 | 4.8 | 0.00 | 0.00 | 0.00 | 22 | 1005.5 |
| 20260502045552 | 27 | 360 | 1.6 | 4.8 | 0.00 | 0.00 | 0.00 | 20 | 1005.5 |
| 20260502045449 | 27 | 360 | 3.2 | 4.8 | 0.00 | 0.00 | 0.00 | 20 | 1005.4 |
| 20260502045051 | 27 | 360 | 0.0 | 0.0 | 0.00 | 0.00 | 0.00 | 18 | 1005.5 |
| 20260502044950 | 27 | 360 | 0.0 | 0.0 | 0.00 | 0.00 | 0.00 | 20 | 1005.4 |
| 20260502044550 | 27 | 360 | 0.0 | 4.8 | 0.00 | 0.00 | 0.00 | 22 | 1005.4 |
| 20260502044449 | 27 | 360 | 0.0 | 4.8 | 0.00 | 0.00 | 0.00 | 21 | 1005.4 |
| 20260502044049 | 27 | 360 | 1.6 | 8.0 | 0.00 | 0.00 | 0.00 | 19 | 1005.4 |
| 20260502043949 | 27 | 360 | 1.6 | 8.0 | 0.00 | 0.00 | 0.00 | 17 | 1005.4 |
| 20260502043550 | 28 | 360 | 0.0 | 8.0 | 0.00 | 0.00 | 0.00 | 17 | 1005.5 |
| 20260502043449 | 28 | 360 | 0.0 | 8.0 | 0.00 | 0.00 | 0.00 | 17 | 1005.4 |
| 20260502043051 | 28 | 360 | 0.0 | 4.8 | 0.00 | 0.00 | 0.00 | 18 | 1005.4 |
| 20260502042949 | 28 | 360 | 1.6 | 3.2 | 0.00 | 0.00 | 0.00 | 19 | 1005.4 |
| 20260502042551 | 28 | 360 | 0.0 | 4.8 | 0.00 | 0.00 | 0.00 | 19 | 1005.4 |
| 20260502042049 | 29 | 360 | 1.6 | 4.8 | 0.00 | 0.00 | 0.00 | 16 | 1005.4 |
| 20260502041948 | 29 | 360 | 3.2 | 4.8 | 0.00 | 0.00 | 0.00 | 15 | 1005.4 |
| 20260502041549 | 29 | 360 | 1.6 | 4.8 | 0.00 | 0.00 | 0.00 | 15 | 1005.2 |
| 20260502041048 | 29 | 360 | 1.6 | 6.4 | 0.00 | 0.00 | 0.00 | 15 | 1005.3 |
| 20260502040949 | 29 | 360 | 1.6 | 6.4 | 0.00 | 0.00 | 0.00 | 15 | 1005.2 |
| 20260502040548 | 29 | 360 | 3.2 | 6.4 | 0.00 | 0.00 | 0.00 | 15 | 1005.2 |
| 20260502040449 | 29 | 360 | 3.2 | 6.4 | 0.00 | 0.00 | 0.00 | 15 | 1005.1 |
| 20260502040049 | 30 | 360 | 1.6 | 8.0 | 0.00 | 0.00 | 0.00 | 15 | 1005.2 |
| 20260502035949 | 30 | 360 | 4.8 | 8.0 | 0.00 | 0.00 | 0.00 | 15 | 1005.0 |
| 20260502035551 | 30 | 360 | 3.2 | 8.0 | 0.00 | 0.00 | 0.00 | 14 | 1005.1 |
| 20260502035448 | 30 | 360 | 0.0 | 8.0 | 0.00 | 0.00 | 0.00 | 14 | 1005.0 |
| 20260502035049 | 30 | 360 | 1.6 | 8.0 | 0.00 | 0.00 | 0.00 | 14 | 1005.0 |
| 20260502034949 | 30 | 360 | 0.0 | 8.0 | 0.00 | 0.00 | 0.00 | 14 | 1005.0 |
| 20260502034549 | 30 | 360 | 3.2 | 8.0 | 0.00 | 0.00 | 0.00 | 14 | 1004.9 |
| 20260502034448 | 30 | 360 | 3.2 | 8.0 | 0.00 | 0.00 | 0.00 | 14 | 1004.8 |
| 20260502034049 | 30 | 360 | 3.2 | 9.7 | 0.00 | 0.00 | 0.00 | 14 | 1004.8 |
| 20260502033949 | 30 | 360 | 4.8 | 9.7 | 0.00 | 0.00 | 0.00 | 14 | 1004.8 |
| 20260502033549 | 30 | 360 | 1.6 | 9.7 | 0.00 | 0.00 | 0.00 | 14 | 1004.8 |
| 20260502033049 | 30 | 360 | 4.8 | 9.7 | 0.00 | 0.00 | 0.00 | 14 | 1004.8 |
| 20260502032949 | 30 | 360 | 4.8 | 9.7 | 0.00 | 0.00 | 0.00 | 14 | 1004.7 |
| 20260502032549 | 30 | 360 | 3.2 | 8.0 | 0.00 | 0.00 | 0.00 | 14 | 1004.7 |
| 20260502032449 | 30 | 360 | 4.8 | 8.0 | 0.00 | 0.00 | 0.00 | 14 | 1004.7 |
| 20260502032050 | 30 | 360 | 3.2 | 8.0 | 0.00 | 0.00 | 0.00 | 14 | 1004.7 |
| 20260502031949 | 30 | 360 | 3.2 | 8.0 | 0.00 | 0.00 | 0.00 | 14 | 1004.6 |
| 20260502031549 | 30 | 360 | 1.6 | 8.0 | 0.00 | 0.00 | 0.00 | 14 | 1004.6 |
| 20260502031052 | 30 | 360 | 4.8 | 9.7 | 0.00 | 0.00 | 0.00 | 13 | 1004.7 |
| 20260502030950 | 30 | 360 | 4.8 | 9.7 | 0.00 | 0.00 | 0.00 | 13 | 1004.6 |
| 20260502030548 | 30 | 360 | 3.2 | 9.7 | 0.00 | 0.00 | 0.00 | 14 | 1004.5 |
| 20260502030053 | 30 | 360 | 3.2 | 8.0 | 0.00 | 0.00 | 0.00 | 14 | 1004.4 |
| 20260502025949 | 30 | 360 | 3.2 | 8.0 | 0.00 | 0.00 | 0.00 | 14 | 1004.3 |
| 20260502025549 | 30 | 360 | 4.8 | 8.0 | 0.00 | 0.00 | 0.00 | 14 | 1004.4 |
| 20260502025449 | 30 | 360 | 3.2 | 8.0 | 0.00 | 0.00 | 0.00 | 14 | 1004.3 |
| 20260502025051 | 30 | 360 | 3.2 | 14.5 | 0.00 | 0.00 | 0.00 | 14 | 1004.4 |
| 20260502024948 | 30 | 360 | 4.8 | 14.5 | 0.00 | 0.00 | 0.00 | 14 | 1004.3 |
| 20260502024552 | 30 | 360 | 4.8 | 14.5 | 0.00 | 0.00 | 0.00 | 14 | 1004.3 |
| 20260502024449 | 30 | 360 | 3.2 | 14.5 | 0.00 | 0.00 | 0.00 | 14 | 1004.3 |
| 20260502024049 | 30 | 360 | 8.0 | 14.5 | 0.00 | 0.00 | 0.00 | 14 | 1004.3 |
| 20260502023948 | 30 | 360 | 4.8 | 12.9 | 0.00 | 0.00 | 0.00 | 14 | 1004.3 |
| 20260502023552 | 30 | 360 | 4.8 | 9.7 | 0.00 | 0.00 | 0.00 | 15 | 1004.3 |
| 20260502023449 | 30 | 360 | 6.4 | 9.7 | 0.00 | 0.00 | 0.00 | 15 | 1004.2 |
| 20260502023053 | 30 | 360 | 1.6 | 14.5 | 0.00 | 0.00 | 0.00 | 14 | 1004.3 |
| 20260502022948 | 30 | 360 | 0.0 | 14.5 | 0.00 | 0.00 | 0.00 | 14 | 1004.1 |
| 20260502022550 | 30 | 360 | 3.2 | 14.5 | 0.00 | 0.00 | 0.00 | 14 | 1004.1 |
| 20260502022449 | 30 | 360 | 9.7 | 14.5 | 0.00 | 0.00 | 0.00 | 14 | 1004.0 |
| 20260502022049 | 30 | 360 | 8.0 | 17.7 | 0.00 | 0.00 | 0.00 | 14 | 1004.1 |
| 20260502021949 | 31 | 360 | 6.4 | 17.7 | 0.00 | 0.00 | 0.00 | 14 | 1004.0 |
| 20260502021549 | 31 | 360 | 8.0 | 17.7 | 0.00 | 0.00 | 0.00 | 14 | 1004.1 |
| 20260502021449 | 31 | 360 | 12.9 | 17.7 | 0.00 | 0.00 | 0.00 | 14 | 1004.0 |
| 20260502021049 | 31 | 360 | 4.8 | 16.1 | 0.00 | 0.00 | 0.00 | 14 | 1004.1 |
| 20260502020949 | 31 | 360 | 6.4 | 16.1 | 0.00 | 0.00 | 0.00 | 14 | 1004.1 |
| 20260502020549 | 31 | 360 | 11.3 | 16.1 | 0.00 | 0.00 | 0.00 | 14 | 1004.2 |
| 20260502020449 | 31 | 360 | 14.5 | 16.1 | 0.00 | 0.00 | 0.00 | 13 | 1004.2 |
| 20260502020049 | 31 | 360 | 9.7 | 16.1 | 0.00 | 0.00 | 0.00 | 13 | 1004.1 |
| 20260502015949 | 31 | 360 | 6.4 | 16.1 | 0.00 | 0.00 | 0.00 | 13 | 1004.1 |
| 20260502015549 | 31 | 360 | 9.7 | 16.1 | 0.00 | 0.00 | 0.00 | 14 | 1004.1 |
| 20260502015449 | 31 | 360 | 8.0 | 17.7 | 0.00 | 0.00 | 0.00 | 14 | 1004.0 |
| 20260502015049 | 31 | 360 | 6.4 | 17.7 | 0.00 | 0.00 | 0.00 | 14 | 1004.0 |
| 20260502014551 | 31 | 360 | 9.7 | 17.7 | 0.00 | 0.00 | 0.00 | 14 | 1004.0 |
| 20260502014449 | 31 | 360 | 8.0 | 17.7 | 0.00 | 0.00 | 0.00 | 14 | 1004.0 |
| 20260502014049 | 31 | 360 | 4.8 | 12.9 | 0.00 | 0.00 | 0.00 | 15 | 1004.1 |
| 20260502013948 | 31 | 360 | 8.0 | 14.5 | 0.00 | 0.00 | 0.00 | 15 | 1004.0 |
| 20260502013549 | 31 | 360 | 4.8 | 14.5 | 0.00 | 0.00 | 0.00 | 15 | 1004.0 |
| 20260502013449 | 31 | 360 | 4.8 | 14.5 | 0.00 | 0.00 | 0.00 | 15 | 1003.9 |
| 20260502013050 | 31 | 360 | 4.8 | 17.7 | 0.00 | 0.00 | 0.00 | 15 | 1004.0 |
| 20260502012951 | 31 | 360 | 4.8 | 17.7 | 0.00 | 0.00 | 0.00 | 15 | 1003.9 |
| 20260502012549 | 31 | 360 | 9.7 | 17.7 | 0.00 | 0.00 | 0.00 | 15 | 1004.1 |
| 20260502012449 | 31 | 360 | 8.0 | 17.7 | 0.00 | 0.00 | 0.00 | 15 | 1003.9 |
| 20260502012052 | 31 | 360 | 4.8 | 16.1 | 0.00 | 0.00 | 0.00 | 15 | 1003.9 |
| 20260502011948 | 31 | 360 | 4.8 | 16.1 | 0.00 | 0.00 | 0.00 | 15 | 1003.9 |
| 20260502011549 | 31 | 360 | 8.0 | 16.1 | 0.00 | 0.00 | 0.00 | 15 | 1004.0 |
| 20260502011449 | 31 | 360 | 6.4 | 14.5 | 0.00 | 0.00 | 0.00 | 15 | 1003.9 |
| 20260502011021 | 31 | 360 | 4.8 | 12.9 | 0.00 | 0.00 | 0.00 | 15 | 1004.0 |
| 20260502010609 | 31 | 360 | 4.8 | 17.7 | 0.00 | 0.00 | 0.00 | 15 | 1003.9 |
| 20260502010507 | 31 | 360 | 4.8 | 17.7 | 0.00 | 0.00 | 0.00 | 15 | 1004.0 |
| 20260502010055 | 31 | 360 | 11.3 | 20.9 | 0.00 | 0.00 | 0.00 | 15 | 1004.0 |
| 20260502005539 | 31 | 360 | 12.9 | 20.9 | 0.00 | 0.00 | 0.00 | 16 | 1004.0 |
| 20260502005024 | 31 | 360 | 1.6 | 19.3 | 0.00 | 0.00 | 0.00 | 16 | 1004.2 |
| 20260502004518 | 31 | 360 | 12.9 | 19.3 | 0.00 | 0.00 | 0.00 | 16 | 1004.1 |
| 20260502004508 | 31 | 360 | 19.3 | 19.3 | 0.00 | 0.00 | 0.00 | 16 | 1004.0 |
| 20260502004100 | 31 | 360 | 8.0 | 17.7 | 0.00 | 0.00 | 0.00 | 16 | 1004.0 |
| 20260502003542 | 31 | 360 | 6.4 | 20.9 | 0.00 | 0.00 | 0.00 | 15 | 1004.1 |
| 20260502003438 | 31 | 360 | 8.0 | 20.9 | 0.00 | 0.00 | 0.00 | 15 | 1004.0 |
| 20260502003027 | 31 | 360 | 12.9 | 20.9 | 0.00 | 0.00 | 0.00 | 16 | 1004.1 |
| 20260502002924 | 31 | 360 | 6.4 | 19.3 | 0.00 | 0.00 | 0.00 | 16 | 1004.1 |
| 20260502002511 | 31 | 360 | 11.3 | 19.3 | 0.00 | 0.00 | 0.00 | 17 | 1004.3 |
| 20260502002408 | 31 | 360 | 17.7 | 17.7 | 0.00 | 0.00 | 0.00 | 17 | 1004.2 |
| 20260502002100 | 31 | 360 | 8.0 | 17.7 | 0.00 | 0.00 | 0.00 | 17 | 1004.2 |
| 20260502001853 | 31 | 360 | 17.7 | 20.9 | 0.00 | 0.00 | 0.00 | 17 | 1004.2 |
| 20260502001545 | 31 | 360 | 8.0 | 20.9 | 0.00 | 0.00 | 0.00 | 17 | 1004.3 |
| 20260502001338 | 31 | 360 | 14.5 | 20.9 | 0.00 | 0.00 | 0.00 | 17 | 1004.3 |
| 20260502001030 | 31 | 360 | 9.7 | 20.9 | 0.00 | 0.00 | 0.00 | 18 | 1004.3 |
| 20260502000823 | 31 | 360 | 16.1 | 16.1 | 0.00 | 0.00 | 0.00 | 18 | 1004.2 |
| 20260502000514 | 31 | 360 | 8.0 | 16.1 | 0.00 | 0.00 | 0.00 | 18 | 1004.2 |
| 20260502000310 | 31 | 360 | 4.8 | 20.9 | 0.00 | 0.00 | 0.00 | 18 | 1004.2 |
| 20260502000117 | 31 | 360 | 9.7 | 20.9 | 0.00 | 0.00 | 0.00 | 18 | 1004.2 |
| 20260501235754 | 31 | 360 | 8.0 | 20.9 | 0.00 | 0.00 | 0.00 | 18 | 1004.2 |
| 20260501235547 | 31 | 360 | 14.5 | 20.9 | 0.00 | 0.00 | 0.00 | 18 | 1004.2 |
| 20260501235239 | 31 | 360 | 9.7 | 16.1 | 0.00 | 0.00 | 0.00 | 18 | 1004.2 |
| 20260501235033 | 31 | 360 | 6.4 | 16.1 | 0.00 | 0.00 | 0.00 | 17 | 1004.2 |
| 20260501234723 | 31 | 360 | 12.9 | 16.1 | 0.00 | 0.00 | 0.00 | 17 | 1004.2 |
| 20260501234526 | 31 | 360 | 4.8 | 20.9 | 0.00 | 0.00 | 0.00 | 17 | 1004.2 |
| 20260501234210 | 31 | 360 | 4.8 | 20.9 | 0.00 | 0.00 | 0.00 | 17 | 1004.3 |
| 20260501234004 | 31 | 360 | 8.0 | 20.9 | 0.00 | 0.00 | 0.00 | 17 | 1004.4 |
| 20260501233654 | 31 | 360 | 12.9 | 20.9 | 0.00 | 0.00 | 0.00 | 17 | 1004.3 |
| 20260501233555 | 31 | 360 | 14.5 | 19.3 | 0.00 | 0.00 | 0.00 | 17 | 1004.3 |
| 20260501233040 | 31 | 360 | 3.2 | 17.7 | 0.00 | 0.00 | 0.00 | 17 | 1004.2 |
| 20260501232623 | 31 | 360 | 6.4 | 20.9 | 0.00 | 0.00 | 0.00 | 18 | 1004.2 |
| 20260501232520 | 31 | 360 | 6.4 | 20.9 | 0.00 | 0.00 | 0.00 | 18 | 1004.3 |
| 20260501232005 | 31 | 360 | 9.7 | 20.9 | 0.00 | 0.00 | 0.00 | 18 | 1004.3 |
| 20260501231554 | 31 | 360 | 6.4 | 20.9 | 0.00 | 0.00 | 0.00 | 18 | 1004.3 |
| 20260501231040 | 31 | 360 | 4.8 | 20.9 | 0.00 | 0.00 | 0.00 | 18 | 1004.3 |
| 20260501230525 | 31 | 360 | 4.8 | 19.3 | 0.00 | 0.00 | 0.00 | 19 | 1004.5 |
| 20260501230523 | 31 | 360 | 1.6 | 19.3 | 0.00 | 0.00 | 0.00 | 19 | 1004.4 |
| 20260501230009 | 30 | 360 | 6.4 | 25.7 | 0.00 | 0.00 | 0.00 | 19 | 1004.7 |
| 20260501225556 | 31 | 360 | 12.9 | 25.7 | 0.00 | 0.00 | 0.00 | 19 | 1004.7 |
| 20260501225454 | 31 | 360 | 14.5 | 25.7 | 0.00 | 0.00 | 0.00 | 20 | 1004.7 |
| 20260501225045 | 31 | 360 | 9.7 | 20.9 | 0.00 | 0.00 | 0.00 | 21 | 1004.7 |
| 20260501224940 | 31 | 360 | 9.7 | 19.3 | 0.00 | 0.00 | 0.00 | 21 | 1004.7 |
| 20260501224526 | 30 | 360 | 4.8 | 25.7 | 0.00 | 0.00 | 0.00 | 20 | 1004.8 |
| 20260501224423 | 30 | 360 | 4.8 | 25.7 | 0.00 | 0.00 | 0.00 | 20 | 1004.8 |
| 20260501224011 | 30 | 360 | 17.7 | 25.7 | 0.00 | 0.00 | 0.00 | 22 | 1004.8 |
| 20260501223908 | 30 | 360 | 17.7 | 25.7 | 0.00 | 0.00 | 0.00 | 22 | 1004.8 |
| 20260501223559 | 30 | 360 | 11.3 | 22.5 | 0.00 | 0.00 | 0.00 | 21 | 1004.8 |
| 20260501223353 | 30 | 360 | 19.3 | 22.5 | 0.00 | 0.00 | 0.00 | 20 | 1004.8 |
| 20260501223044 | 30 | 360 | 14.5 | 24.1 | 0.00 | 0.00 | 0.00 | 21 | 1004.8 |
| 20260501222838 | 30 | 360 | 14.5 | 24.1 | 0.00 | 0.00 | 0.00 | 23 | 1004.8 |
| 20260501222529 | 30 | 360 | 16.1 | 24.1 | 0.00 | 0.00 | 0.00 | 22 | 1005.0 |
| 20260501222015 | 30 | 360 | 11.3 | 22.5 | 0.00 | 0.00 | 0.00 | 23 | 1005.0 |
| 20260501221606 | 30 | 360 | 9.7 | 24.1 | 0.00 | 0.00 | 0.00 | 23 | 1005.2 |
| 20260501221253 | 30 | 360 | 16.1 | 24.1 | 0.00 | 0.00 | 0.00 | 22 | 1005.3 |
| 20260501221051 | 30 | 360 | 16.1 | 25.7 | 0.00 | 0.00 | 0.00 | 23 | 1005.3 |
| 20260501220739 | 30 | 360 | 12.9 | 25.7 | 0.00 | 0.00 | 0.00 | 23 | 1005.3 |
| 20260501220534 | 30 | 360 | 14.5 | 25.7 | 0.00 | 0.00 | 0.00 | 23 | 1005.4 |
| 20260501220017 | 30 | 360 | 9.7 | 25.7 | 0.00 | 0.00 | 0.00 | 23 | 1005.5 |
| 20260501215708 | 30 | 360 | 19.3 | 25.7 | 0.00 | 0.00 | 0.00 | 23 | 1005.5 |
| 20260501215503 | 30 | 360 | 12.9 | 25.7 | 0.00 | 0.00 | 0.00 | 24 | 1005.7 |
| 20260501215153 | 30 | 360 | 12.9 | 27.4 | 0.00 | 0.00 | 0.00 | 24 | 1005.5 |
| 20260501215050 | 30 | 360 | 17.7 | 27.4 | 0.00 | 0.00 | 0.00 | 24 | 1005.6 |
| 20260501214638 | 30 | 360 | 16.1 | 27.4 | 0.00 | 0.00 | 0.00 | 24 | 1005.5 |
| 20260501214535 | 30 | 360 | 14.5 | 27.4 | 0.00 | 0.00 | 0.00 | 23 | 1005.5 |
| 20260501214123 | 30 | 360 | 16.1 | 27.4 | 0.00 | 0.00 | 0.00 | 21 | 1005.5 |
| 20260501214021 | 30 | 360 | 16.1 | 27.4 | 0.00 | 0.00 | 0.00 | 21 | 1005.6 |
| 20260501213608 | 30 | 360 | 16.1 | 25.7 | 0.00 | 0.00 | 0.00 | 23 | 1005.6 |
| 20260501213505 | 30 | 360 | 12.9 | 25.7 | 0.00 | 0.00 | 0.00 | 24 | 1005.8 |
| 20260501213109 | 30 | 360 | 16.1 | 25.7 | 0.00 | 0.00 | 0.00 | 23 | 1005.8 |
| 20260501213053 | 30 | 360 | 14.5 | 25.7 | 0.00 | 0.00 | 0.00 | 23 | 1005.7 |
| 20260501212538 | 30 | 360 | 14.5 | 25.7 | 0.00 | 0.00 | 0.00 | 24 | 1005.8 |
| 20260501212023 | 30 | 360 | 11.3 | 24.1 | 0.00 | 0.00 | 0.00 | 24 | 1006.0 |
| 20260501211508 | 30 | 360 | 12.9 | 22.5 | 0.00 | 0.00 | 0.00 | 24 | 1006.1 |
| 20260501211055 | 30 | 360 | 6.4 | 24.1 | 0.00 | 0.00 | 0.00 | 23 | 1006.1 |
| 20260501210541 | 30 | 360 | 14.5 | 25.7 | 0.00 | 0.00 | 0.00 | 23 | 1006.3 |
| 20260501210026 | 30 | 360 | 14.5 | 25.7 | 0.00 | 0.00 | 0.00 | 23 | 1006.2 |
| 20260501205922 | 30 | 360 | 12.9 | 20.9 | 0.00 | 0.00 | 0.00 | 23 | 1006.2 |
| 20260501205511 | 30 | 360 | 12.9 | 20.9 | 0.00 | 0.00 | 0.00 | 23 | 1006.3 |
| 20260501205407 | 30 | 360 | 16.1 | 20.9 | 0.00 | 0.00 | 0.00 | 23 | 1006.2 |
| 20260501205059 | 30 | 360 | 6.4 | 24.1 | 0.00 | 0.00 | 0.00 | 21 | 1006.3 |
| 20260501204548 | 30 | 360 | 9.7 | 24.1 | 0.00 | 0.00 | 0.00 | 22 | 1006.4 |
| 20260501204337 | 30 | 360 | 6.4 | 24.1 | 0.00 | 0.00 | 0.00 | 22 | 1006.3 |
| 20260501204028 | 30 | 360 | 16.1 | 24.1 | 0.00 | 0.00 | 0.00 | 22 | 1006.4 |
| 20260501203823 | 30 | 360 | 20.9 | 24.1 | 0.00 | 0.00 | 0.00 | 23 | 1006.3 |
| 20260501203514 | 29 | 360 | 11.3 | 25.7 | 0.00 | 0.00 | 0.00 | 23 | 1006.3 |
| 20260501203307 | 29 | 360 | 8.0 | 25.7 | 0.00 | 0.00 | 0.00 | 22 | 1006.3 |
| 20260501203102 | 28 | 360 | 12.9 | 25.7 | 0.00 | 0.00 | 0.00 | 22 | 1006.3 |
| 20260501202752 | 28 | 360 | 22.5 | 24.1 | 0.00 | 0.00 | 0.00 | 23 | 1006.3 |
| 20260501202548 | 28 | 360 | 16.1 | 22.5 | 0.00 | 0.00 | 0.00 | 23 | 1006.4 |
| 20260501202238 | 29 | 360 | 12.9 | 22.5 | 0.00 | 0.00 | 0.00 | 23 | 1006.3 |
| 20260501202034 | 29 | 360 | 16.1 | 22.5 | 0.00 | 0.00 | 0.00 | 23 | 1006.5 |
| 20260501201519 | 29 | 360 | 3.2 | 22.5 | 0.00 | 0.00 | 0.00 | 23 | 1006.4 |
| 20260501201208 | 29 | 360 | 17.7 | 25.7 | 0.00 | 0.00 | 0.00 | 23 | 1006.5 |
| 20260501201001 | 29 | 360 | 12.9 | 25.7 | 0.00 | 0.00 | 0.00 | 23 | 1006.6 |
| 20260501200653 | 28 | 360 | 8.0 | 25.7 | 0.00 | 0.00 | 0.00 | 24 | 1006.7 |
| 20260501200549 | 28 | 360 | 17.7 | 25.7 | 0.00 | 0.00 | 0.00 | 24 | 1006.7 |
| 20260501200137 | 29 | 360 | 22.5 | 25.7 | 0.00 | 0.00 | 0.00 | 24 | 1006.5 |
| 20260501200035 | 28 | 360 | 12.9 | 25.7 | 0.00 | 0.00 | 0.00 | 24 | 1006.7 |
| 20260501195520 | 28 | 360 | 17.7 | 25.7 | 0.00 | 0.00 | 0.00 | 24 | 1006.6 |
| 20260501195107 | 28 | 360 | 20.9 | 27.4 | 0.00 | 0.00 | 0.00 | 25 | 1006.6 |
| 20260501195005 | 28 | 360 | 12.9 | 27.4 | 0.00 | 0.00 | 0.00 | 25 | 1006.6 |
| 20260501194557 | 28 | 360 | 8.0 | 27.4 | 0.00 | 0.00 | 0.00 | 25 | 1006.7 |
| 20260501194553 | 28 | 360 | 9.7 | 27.4 | 0.00 | 0.00 | 0.00 | 25 | 1006.7 |
| 20260501194038 | 28 | 360 | 11.3 | 25.7 | 0.00 | 0.00 | 0.00 | 25 | 1006.8 |
| 20260501193522 | 28 | 360 | 16.1 | 25.7 | 0.00 | 0.00 | 0.00 | 25 | 1007.0 |
| 20260501193019 | 28 | 360 | 11.3 | 27.4 | 0.00 | 0.00 | 0.00 | 25 | 1006.9 |
| 20260501193008 | 28 | 360 | 19.3 | 27.4 | 0.00 | 0.00 | 0.00 | 25 | 1006.9 |
| 20260501192555 | 28 | 360 | 9.7 | 27.4 | 0.00 | 0.00 | 0.00 | 25 | 1007.1 |
| 20260501192452 | 28 | 360 | 8.0 | 27.4 | 0.00 | 0.00 | 0.00 | 25 | 1007.1 |
| 20260501192041 | 28 | 360 | 6.4 | 22.5 | 0.00 | 0.00 | 0.00 | 25 | 1007.1 |
| 20260501191937 | 28 | 360 | 4.8 | 22.5 | 0.00 | 0.00 | 0.00 | 26 | 1007.0 |
| 20260501191527 | 28 | 360 | 9.7 | 20.9 | 0.00 | 0.00 | 0.00 | 26 | 1007.1 |
| 20260501191422 | 28 | 360 | 12.9 | 19.3 | 0.00 | 0.00 | 0.00 | 26 | 1007.0 |
| 20260501191011 | 28 | 360 | 12.9 | 22.5 | 0.00 | 0.00 | 0.00 | 26 | 1007.4 |
| 20260501190907 | 28 | 360 | 12.9 | 22.5 | 0.00 | 0.00 | 0.00 | 26 | 1007.3 |
| 20260501190559 | 28 | 360 | 9.7 | 24.1 | 0.00 | 0.00 | 0.00 | 26 | 1007.5 |
| 20260501190352 | 28 | 360 | 14.5 | 24.1 | 0.00 | 0.00 | 0.00 | 26 | 1007.4 |
| 20260501190043 | 28 | 360 | 11.3 | 24.1 | 0.00 | 0.00 | 0.00 | 26 | 1007.5 |
| 20260501185837 | 28 | 360 | 4.8 | 24.1 | 0.00 | 0.00 | 0.00 | 27 | 1007.3 |
| 20260501185528 | 28 | 360 | 6.4 | 16.1 | 0.00 | 0.00 | 0.00 | 27 | 1007.6 |
| 20260501185322 | 27 | 360 | 3.2 | 19.3 | 0.00 | 0.00 | 0.00 | 27 | 1007.5 |
| 20260501185013 | 27 | 360 | 6.4 | 20.9 | 0.00 | 0.00 | 0.00 | 27 | 1007.7 |
| 20260501184807 | 27 | 360 | 4.8 | 20.9 | 0.00 | 0.00 | 0.00 | 27 | 1007.7 |
| 20260501184602 | 27 | 360 | 12.9 | 20.9 | 0.00 | 0.00 | 0.00 | 27 | 1007.8 |
| 20260501184252 | 27 | 360 | 8.0 | 17.7 | 0.00 | 0.00 | 0.00 | 28 | 1007.8 |
| 20260501184048 | 27 | 360 | 4.8 | 12.9 | 0.00 | 0.00 | 0.00 | 28 | 1007.8 |
| 20260501183737 | 27 | 360 | 1.6 | 20.9 | 0.00 | 0.00 | 0.00 | 29 | 1007.8 |
| 20260501183532 | 26 | 360 | 4.8 | 20.9 | 0.00 | 0.00 | 0.00 | 29 | 1007.9 |
| 20260501183222 | 26 | 360 | 8.0 | 20.9 | 0.00 | 0.00 | 0.00 | 29 | 1007.8 |
| 20260501183018 | 26 | 360 | 8.0 | 20.9 | 0.00 | 0.00 | 0.00 | 29 | 1007.9 |
| 20260501182707 | 26 | 360 | 3.2 | 17.7 | 0.00 | 0.00 | 0.00 | 29 | 1007.9 |
| 20260501182501 | 27 | 360 | 9.7 | 17.7 | 0.00 | 0.00 | 0.00 | 29 | 1008.1 |
| 20260501182153 | 27 | 360 | 6.4 | 16.1 | 0.00 | 0.00 | 0.00 | 28 | 1008.0 |
| 20260501182050 | 27 | 360 | 8.0 | 16.1 | 0.00 | 0.00 | 0.00 | 28 | 1008.0 |
| 20260501181637 | 27 | 360 | 8.0 | 25.7 | 0.00 | 0.00 | 0.00 | 28 | 1008.1 |
| 20260501181535 | 27 | 360 | 4.8 | 25.7 | 0.00 | 0.00 | 0.00 | 28 | 1008.2 |
| 20260501181122 | 27 | 360 | 12.9 | 25.7 | 0.00 | 0.00 | 0.00 | 28 | 1008.1 |
| 20260501181019 | 27 | 360 | 9.7 | 17.7 | 0.00 | 0.00 | 0.00 | 28 | 1008.2 |
| 20260501180505 | 27 | 360 | 0.0 | 16.1 | 0.00 | 0.00 | 0.00 | 28 | 1008.3 |
| 20260501180053 | 27 | 360 | 3.2 | 19.3 | 0.00 | 0.00 | 0.00 | 28 | 1008.4 |
| 20260501175542 | 27 | 360 | 9.7 | 17.7 | 0.00 | 0.00 | 0.00 | 28 | 1008.5 |
| 20260501175537 | 27 | 360 | 17.7 | 17.7 | 0.00 | 0.00 | 0.00 | 28 | 1008.5 |
| 20260501175022 | 27 | 360 | 0.0 | 12.9 | 0.00 | 0.00 | 0.00 | 28 | 1008.6 |
| 20260501174517 | 27 | 360 | 4.8 | 16.1 | 0.00 | 0.00 | 0.00 | 29 | 1008.6 |
| 20260501174507 | 27 | 360 | 1.6 | 16.1 | 0.00 | 0.00 | 0.00 | 29 | 1008.5 |
| 20260501174055 | 26 | 360 | 3.2 | 17.7 | 0.00 | 0.00 | 0.00 | 30 | 1008.6 |
| 20260501173952 | 26 | 360 | 3.2 | 17.7 | 0.00 | 0.00 | 0.00 | 30 | 1008.6 |
| 20260501173543 | 26 | 360 | 11.3 | 22.5 | 0.00 | 0.00 | 0.00 | 31 | 1008.7 |
| 20260501173025 | 26 | 360 | 4.8 | 22.5 | 0.00 | 0.00 | 0.00 | 31 | 1008.7 |
| 20260501172922 | 26 | 360 | 1.6 | 17.7 | 0.00 | 0.00 | 0.00 | 30 | 1008.7 |
| 20260501172510 | 26 | 360 | 9.7 | 20.9 | 0.00 | 0.00 | 0.00 | 30 | 1008.6 |
| 20260501172407 | 26 | 360 | 12.9 | 20.9 | 0.00 | 0.00 | 0.00 | 31 | 1008.6 |
| 20260501172058 | 26 | 360 | 8.0 | 20.9 | 0.00 | 0.00 | 0.00 | 31 | 1008.6 |
| 20260501171852 | 26 | 360 | 4.8 | 20.9 | 0.00 | 0.00 | 0.00 | 32 | 1008.6 |
| 20260501171543 | 26 | 360 | 8.0 | 14.5 | 0.00 | 0.00 | 0.00 | 31 | 1008.6 |
| 20260501171337 | 26 | 360 | 4.8 | 17.7 | 0.00 | 0.00 | 0.00 | 31 | 1008.6 |
| 20260501171028 | 26 | 360 | 8.0 | 17.7 | 0.00 | 0.00 | 0.00 | 30 | 1008.8 |
| 20260501170822 | 26 | 360 | 6.4 | 17.7 | 0.00 | 0.00 | 0.00 | 30 | 1008.7 |
| 20260501170513 | 26 | 360 | 6.4 | 17.7 | 0.00 | 0.00 | 0.00 | 31 | 1008.8 |
| 20260501170307 | 25 | 360 | 3.2 | 17.7 | 0.00 | 0.00 | 0.00 | 31 | 1008.6 |
| 20260501170105 | 25 | 360 | 3.2 | 16.1 | 0.00 | 0.00 | 0.00 | 32 | 1008.7 |
| 20260501165546 | 25 | 360 | 8.0 | 19.3 | 0.00 | 0.00 | 0.00 | 32 | 1008.8 |
| 20260501165237 | 25 | 360 | 9.7 | 20.9 | 0.00 | 0.00 | 0.00 | 33 | 1008.6 |
| 20260501165031 | 25 | 360 | 9.7 | 20.9 | 0.00 | 0.00 | 0.00 | 33 | 1008.8 |
| 20260501164722 | 25 | 360 | 17.7 | 20.9 | 0.00 | 0.00 | 0.00 | 33 | 1008.6 |
| 20260501164533 | 25 | 360 | 9.7 | 20.9 | 0.00 | 0.00 | 0.00 | 34 | 1008.6 |
| 20260501164207 | 25 | 360 | 9.7 | 22.5 | 0.00 | 0.00 | 0.00 | 34 | 1008.6 |
| 20260501164001 | 25 | 360 | 11.3 | 22.5 | 0.00 | 0.00 | 0.00 | 34 | 1008.8 |
| 20260501163651 | 24 | 360 | 12.9 | 22.5 | 0.00 | 0.00 | 0.00 | 34 | 1008.6 |
| 20260501163549 | 24 | 360 | 9.7 | 19.3 | 0.00 | 0.00 | 0.00 | 35 | 1008.7 |
| 20260501163137 | 24 | 360 | 9.7 | 19.3 | 0.00 | 0.00 | 0.00 | 34 | 1008.6 |
| 20260501163034 | 24 | 360 | 11.3 | 19.3 | 0.00 | 0.00 | 0.00 | 35 | 1008.7 |
| 20260501162519 | 24 | 360 | 6.4 | 17.7 | 0.00 | 0.00 | 0.00 | 35 | 1008.7 |